Torna al catalogo

STARLINK-35143

AttivoComunicazioniVLEO
NORAD 65485·PAYLOAD·🇺🇸 United States

Lanciato Sep 3, 2025 da Cape Canaveral Space Force Station

Loading…

Prossimi Passaggi (prossime 24 ore)

TLE

AggiornatoSource: CelesTrak SupGP

Epoca: Sep 14, 2026, 20:55 UTC

1 65485C 25195AD  26257.87201389 -.00025341  00000+0 -81503-3 0  2573
2 65485  53.1569  98.0308 0001174  86.2050  70.9506 15.31709473    19

Traccia STARLINK-35143 in tempo reale con AllMySat

Download on the App Store